Regional Weather Roundup
Issued by NWS

Home | Current Version | Previous Version | Graphics & Text | Print | Product List | Glossary On
Versions: 1 2 3 4 5 6 7 8 9 10 11 12 13 14 15 16 17 18 19 20 21 22 23 24 25 26 27 28 29 30 31 32 33 34 35 36 37 38 39 40 41 42 43 44 45 46 47 48 49 50
000
ASUS43 KDMX 250303
RWRIA

WEATHER ROUNDUP FOR IOWA
NATIONAL WEATHER SERVICE DES MOINES IA
1000 PM CDT SAT SEP 24 2016

NOTE: "FAIR" INDICATES FEW OR NO CLOUDS BELOW 12,000 FEET WITH NO
SIGNIFICANT WEATHER AND/OR OBSTRUCTIONS TO VISIBILITY.

* - THESE STATIONS ARE NOT NWS STATIONS...THUS NOT UNDER NWS
QUALITY CONTROL.  THEY ALSO DO NOT REPORT WEATHER SUCH
AS PRECIPITATION OR FOG.

IAZ001>003-012>014-020>022-031>034-043>046-250400-
   NORTHWEST IOWA

CITY           SKY/WX    TMP DP  RH WIND       PRES   REMARKS
CARROLL *      CLOUDY    68  68 100 S5        29.99R
CHEROKEE *     CLOUDY    68  68 100 CALM      29.97R
DENISON *      CLOUDY    70  68  94 VRB6G14   29.97R
LE MARS *      CLOUDY    70  68  94 SE10G17   29.95R
ORANGE CITY *  CLOUDY    70  66  88 S8        29.95R
SHELDON *      CLOUDY    68  66  94 S10       29.93R
SIOUX CITY     CLOUDY    73  71  93 SE9       29.93R
SPENCER        CLOUDY    68  67  96 SE10      29.95F
STORM LAKE *   CLOUDY    66  66 100 SE10      29.99R
$$

IAZ055>058-069>071-079>083-090>094-250400-
   SOUTHWEST IOWA

CITY           SKY/WX    TMP DP  RH WIND       PRES   REMARKS
ATLANTIC *     RAIN      70  68  94 CALM      30.01R
AUDUBON *      LGT RAIN  68  64  88 CALM      30.01R
CLARINDA *       N/A     70  68  94 MISG      30.01R
COUNCIL BLFS * MOCLDY    70  68  94 S9        29.95F
CRESTON *      LGT RAIN  70  68  94 SE5       30.04R
HARLAN  *      LGT RAIN  70  68  94 SE7       30.01R
LAMONI         CLOUDY    74  67  78 W14       30.03R
RED OAK *      LGT RAIN  70  68  94 CALM      29.98R
SHENANDOAH *   LGT RAIN  68  68 100 S3        29.99R
$$

IAZ047>049-059>061-072>074-084-250400-
   CENTRAL IOWA

CITY           SKY/WX    TMP DP  RH WIND       PRES   REMARKS
AMES           LGT RAIN  69  69 100 NE3       30.01F
ANKENY *         N/A    N/A N/A N/A MISG        N/A
BOONE *        LGT RAIN  68  68 100 E8        30.00F
CHARITON *       N/A     75  70  83 SE6       30.01R
DES MOINES     TSTM      70  67  90 CALM      30.01F
GRINNELL*      CLOUDY    73  64  71 E7        30.03S
KNOXVILLE *    CLOUDY    77  68  73 SE6       29.99R
MARSHALLTOWN   CLOUDY    74  70  87 E9        30.00R
NEWTON *       CLOUDY    77  66  69 W7        30.01R
PELLA *        CLOUDY    73  68  84 SE5       30.01F
PERRY *          N/A     67  67  99 E6        30.00R
$$

IAZ004>006-015-016-023>025-035-036-250400-
   NORTH CENTRAL IOWA

CITY           SKY/WX    TMP DP  RH WIND       PRES   REMARKS
ALGONA *       LGT RAIN  68  66  94 S12       29.98S
CLARION *      CLOUDY    68  68 100 SE9       30.01R
ESTHERVILLE    LGT RAIN  67  67 100 S10       29.96R
FORT DODGE *   CLOUDY    66  64  94 SE6       30.01R
FOREST CITY *  LGT RAIN  68  66  94 S9        30.01R
WEBSTER CITY * LGT RAIN  68  66  94 SE12      29.98F
IOWA FALLS *   MOCLDY    69  66  91 SW3       30.04R
$$

IAZ007>011-017>019-026>030-037>042-050>054-066-250400-
   NORTHEAST IOWA

CITY           SKY/WX    TMP DP  RH WIND       PRES   REMARKS
CEDAR RAPIDS   CLOUDY    70  69  97 SE6       30.04R
CHARLES CITY * CLOUDY    68  66  94 E10       30.04R
CLINTON *      CLEAR     70  67  90 E10       30.07S
DECORAH *      PTCLDY    66  66 100 E9        30.05S
DUBUQUE        CLEAR     67  64  90 E9        30.08S
MONTICELLO *   CLEAR     70  66  88 E12       30.05R FOG
OELWEIN *      MOCLDY    68  66  94 SE9       30.05S FOG
WATERLOO       MOCLDY    69  66  90 SE10      30.02R
$$

IAZ064-065-067-068-078-250400-
   EAST CENTRAL IOWA

CITY           SKY/WX    TMP DP  RH WIND       PRES   REMARKS
DAVENPORT      CLEAR     72  66  81 E9        30.05F
IOWA CITY      CLOUDY    72  67  84 SE6       30.05R
MT. PLEASANT * CLEAR     74  67  78 SE3       30.04R
MUSCATINE *    CLEAR     73  68  83 CALM      30.04R
QUAD CITIES    CLEAR     73  67  81 E12       30.03F
$$

IAZ062-063-075>077-085>089-095>099-250400-
   SOUTHEAST IOWA

CITY           SKY/WX    TMP DP  RH WIND       PRES   REMARKS
BURLINGTON     CLEAR     71  67  87 SE6       30.03R
FAIRFIELD *    PTCLDY    72  63  73 CALM      30.03R
FORT MADISON *   N/A     75  66  73 CALM      30.05R
KEOKUK *       CLEAR     75  66  73 CALM      30.03R
OSKALOOSA *    CLOUDY    74  64  71 SE5       30.02S
CENTERVILLE *    N/A     73  66  78 CALM      30.04R
OTTUMWA        CLOUDY    75  65  70 SE6       30.02R
WASHINGTON *     N/A    N/A N/A N/A MISG        N/A
$$

ABBREVIATIONS USED IN REMARKS
   TC - TEMPERATURES IN CELSIUS
  WCI - WIND CHILL INDEX
   HX - HEAT INDEX
  VSB - VISIBILITY
$$





USA.gov is the U.S. government's official web portal to all federal, state and local government web resources and services.